Location: Dattensoll
(49.9928°N, 9.8954°E)
Time: 10:46:43
(UTC+00:00)

PSLV R/B - Pass Details

Date: 19 May 2025
Orbit: 586 x 683 km, 97.9° (Epoch: 23 June)

Event Time Altitude Azimuth Distance (km) Brightness Sun altitude
Rises 22:40:08 0° 18° (NNE) 2,849 8.1 -19.6°
Reaches altitude 10° 22:42:23 10° 24° (NNE) 1,934 6.9 -19.6°
Maximum altitude 22:46:26 48° 99° (E) 774 3.9 -19.7°
Enters shadow 22:47:09 43° 131° (SE) 831 3.8 -19.7°
